Wetbulb
57.29 57.35 57.16 56.91 56.84 57.06 57.29 57.52 57.94 57.98 58.43 58.51 58.71 59.37 59.53 59.74 59.16 58.39 57.03 61.32 64.60 74.46 74.62 70.15 69.90 68.52 68.91 67.71 68.18 66.36 56.89 54.39 56.55 55.75 56.00 60.80 61.96 66.31 68.94 66.45 67.54 68.32 68.12 69.18 71.29
56.72 56.87 56.90 56.84 56.58 56.72 56.92 56.88 57.07 57.26 57.58 57.88 58.30 58.50 59.34 59.59 56.29 53.39 62.32 70.30 71.54 74.82 66.16 64.42 63.59 65.70 62.33 63.20 63.26 61.57 55.57 56.69 61.48 60.64 56.87 61.47 63.31 63.85 64.53 64.83 65.31 66.76 69.35 70.75 70.96
55.93 55.74 55.59 55.78 55.99 55.99 56.24 56.72 56.60 56.56 56.74 57.11 57.55 58.14 59.19 58.83 53.55 53.73 74.27 70.61 72.39 73.76 63.35 60.37 60.02 61.39 60.10 60.42 60.97 61.64 57.74 60.69 61.39 62.59 62.21 59.35 60.49 63.14 61.64 61.94 65.10 64.94 66.92 69.45 70.07
55.57 55.14 55.45 55.44 55.63 55.86 56.04 56.29 56.82 56.28 56.37 56.71 57.34 58.11 59.07 56.30 45.40 57.31 74.42 75.49 75.22 69.28 62.28 58.04 55.77 54.56 55.26 55.72 62.68 58.51 61.80 61.85 61.33 63.14 61.07 59.98 60.98 61.35 62.41 62.88 68.09 68.00 67.76 68.02 69.03
55.35 55.81 55.77 55.59 55.57 55.76 56.09 56.45 56.43 56.28 55.90 56.45 57.40 58.24 56.53 52.92 53.30 60.41 73.39 74.25 70.45 64.63 59.79 57.31 54.28 54.90 54.23 57.17 61.10 60.21 61.33 62.32 62.98 62.87 61.90 61.64 60.11 61.60 62.31 67.63 68.98 68.80 68.17 67.42 67.09
55.65 55.96 55.81 55.87 56.02 56.12 56.20 56.00 55.81 55.82 55.58 56.48 57.68 58.54 54.52 46.41 55.77 58.29 65.74 65.68 64.18 60.75 58.40 57.61 56.51 58.38 57.03 57.31 56.84 61.87 62.58 62.02 60.93 60.96 62.14 60.73 60.29 61.60 63.71 68.13 68.02 68.08 67.15 67.40 66.85
55.80 55.72 55.66 55.60 55.87 55.85 55.82 55.33 55.48 55.15 55.34 56.57 58.24 58.50 53.97 50.34 57.64 59.72 61.67 61.35 62.59 59.64 57.60 59.16 59.27 56.82 56.86 55.39 58.63 58.17 56.14 61.34 60.84 57.54 60.57 62.33 58.66 59.58 63.81 66.76 66.45 66.87 67.33 67.80 67.79
55.60 55.60 55.31 55.25 55.46 55.31 54.77 54.48 54.72 55.21 56.21 57.47 59.95 57.19 50.11 57.96 57.97 56.88 56.41 59.41 62.17 59.63 59.36 58.90 59.15 55.98 54.18 55.38 55.09 53.64 52.09 48.81 55.57 57.33 58.89 59.60 53.78 60.04 62.96 64.54 64.59 66.04 66.74 67.36 67.40
55.08 55.06 55.06 54.75 54.71 54.34 53.74 53.93 55.22 57.27 57.84 60.17 57.02 54.95 52.82 63.99 57.42 57.96 57.74 56.53 57.62 58.63 58.42 61.72 57.47 53.55 53.74 49.56 46.78 48.17 45.99 48.58 52.58 58.06 58.62 57.84 54.54 60.87 61.72 63.54 63.12 64.53 65.48 66.12 66.47
54.69 54.53 54.36 54.20 53.87 53.26 52.85 53.43 55.55 57.92 59.01 61.01 60.61 53.96 58.77 56.00 58.25 59.49 59.67 58.85 56.18 56.74 55.29 54.22 52.63 49.98 49.23 46.59 41.81 44.46 46.19 48.95 50.94 56.55 58.00 56.17 55.59 60.42 61.18 61.66 62.83 63.78 64.74 65.27 65.59
54.42 54.03 53.80 53.51 53.03 52.35 50.35 48.48 50.69 50.23 56.10 55.76 54.86 55.23 54.80 59.12 60.60 59.49 59.80 56.55 54.47 51.40 48.08 51.62 47.28 46.36 47.91 49.12 49.75 50.45 49.75 49.65 53.09 58.52 57.35 56.90 56.45 58.48 60.12 60.18 60.78 62.99 63.72 64.44 65.32
54.24 53.86 53.57 53.28 52.83 51.85 50.20 49.04 51.00 50.84 45.36 51.06 51.90 54.32 58.61 60.10 57.05 58.67 59.01 52.63 50.68 47.37 50.44 48.70 46.13 50.78 52.47 51.89 50.42 50.06 49.18 49.54 53.68 58.17 57.17 58.21 56.66 58.74 59.15 59.23 61.09 62.20 63.40 64.02 65.09
54.15 53.68 53.01 52.62 51.72 52.04 48.21 49.18 53.64 51.89 43.61 46.88 49.73 49.79 50.44 53.02 53.59 56.02 56.62 54.20 51.18 49.68 50.41 47.22 49.10 53.84 51.87 50.09 49.75 49.39 48.26 49.73 51.69 57.18 58.48 58.05 55.95 55.80 59.16 61.24 62.28 63.03 64.06 64.90 64.80
54.04 53.43 52.74 51.67 49.93 47.89 48.60 55.21 55.33 52.57 38.78 44.86 47.93 50.15 51.08 51.49 51.09 59.09 59.17 55.46 53.03 49.87 50.74 49.15 52.74 51.69 50.00 48.69 49.79 46.29 52.49 52.84 52.43 53.74 49.84 58.23 49.13 54.77 57.82 59.61 61.31 61.51 62.53 63.35 64.77
53.94 53.18 51.98 51.27 46.71 46.58 52.19 54.24 54.20 50.06 32.43 51.53 50.95 55.22 51.50 48.50 52.63 55.44 60.09 55.81 51.67 51.38 49.47 48.09 50.50 49.70 48.42 48.93 50.41 48.74 53.50 52.71 52.41 50.56 52.48 52.94 49.93 52.21 58.65 57.88 59.98 61.07 62.05 63.01 64.13
53.49 52.54 51.61 49.08 48.43 50.14 52.67 52.92 50.84 38.18 34.05 47.86 52.72 49.15 47.99 48.59 50.12 53.24 55.38 55.36 55.46 52.70 50.99 49.84 53.72 52.31 50.50 51.88 51.25 52.08 50.90 51.24 51.30 49.64 44.56 51.32 50.59 50.79 53.17 58.19 59.69 61.21 62.70 63.19 63.76
52.36 50.90 49.73 50.25 44.70 51.85 51.31 49.21 36.65 34.37 49.37 49.06 49.23 50.67 48.61 46.52 47.85 48.97 49.40 48.13 46.50 45.34 46.13 49.83 49.66 51.98 53.37 48.16 50.09 49.27 45.33 42.65 41.58 42.87 41.91 52.38 51.03 51.78 57.40 59.88 62.02 62.58 62.99 63.65 64.49
51.01 49.47 50.30 52.19 52.71 51.07 49.26 41.69 33.07 44.20 43.98 50.01 50.13 51.25 48.44 49.77 48.12 48.58 47.26 46.22 48.83 48.27 45.75 44.75 43.28 49.41 52.20 49.38 45.64 46.73 45.52 42.73 36.28 39.79 42.89 48.43 47.32 52.73 60.13 61.55 63.83 63.33 63.38 62.89 65.03
50.13 48.60 48.31 51.12 53.71 51.96 44.97 35.49 37.69 42.98 47.40 45.72 46.09 45.76 47.71 51.07 50.58 48.17 46.93 47.36 48.60 48.99 44.74 45.05 45.31 52.72 52.47 52.64 50.35 45.89 43.99 46.77 40.91 43.99 41.93 46.42 49.53 54.23 59.73 60.23 61.01 61.50 62.24 62.79 63.30
46.51 45.82 47.20 53.50 55.25 49.99 41.84 36.80 41.41 46.56 46.14 44.66 39.73 44.60 42.00 43.46 44.19 48.70 47.44 49.89 50.27 50.97 50.93 47.66 43.33 51.03 52.59 52.93 51.58 48.61 47.62 42.80 44.08 37.47 38.41 44.19 46.10 48.21 54.12 57.94 59.39 60.16 60.83 61.90 63.63
46.01 42.71 49.62 52.85 52.40 46.61 37.24 39.09 42.93 47.12 47.52 44.43 43.11 42.48 43.12 43.03 44.35 43.71 45.56 51.38 52.75 51.77 51.62 49.28 47.03 47.69 51.14 49.02 47.05 45.49 45.73 43.74 43.65 44.11 39.74 39.53 44.53 51.64 56.80 59.22 59.05 60.47 62.10 62.92 63.42
44.41 36.98 49.72 51.33 41.20 43.41 39.62 42.70 44.39 44.69 47.30 45.82 46.24 44.67 43.43 44.46 42.85 43.23 43.83 46.61 53.72 54.27 49.39 50.69 47.12 43.93 46.62 51.75 52.69 50.61 46.72 43.82 41.58 37.84 42.07 42.27 44.35 54.80 55.36 60.60 61.18 61.45 61.66 62.20 63.31
40.01 40.66 48.70 48.13 34.98 37.80 42.60 43.12 44.51 43.37 44.04 44.04 43.34 45.07 45.98 43.67 41.06 44.39 45.95 50.16 50.85 49.61 51.14 51.33 47.20 41.69 43.56 47.30 50.56 48.68 49.46 47.21 46.15 42.78 41.87 40.12 44.24 53.62 54.53 59.79 60.51 59.26 61.31 62.88 62.06
41.31 34.96 41.84 44.54 44.31 40.29 38.60 38.71 38.97 44.62 43.48 44.50 43.52 44.23 42.54 42.82 45.30 43.14 44.65 49.53 50.92 49.74 59.22 57.17 48.81 45.57 42.16 44.63 47.03 47.34 49.13 49.09 46.53 42.29 41.65 43.59 44.18 50.48 53.91 57.03 58.65 60.78 61.92 61.16 62.32
42.73 37.66 40.69 34.39 37.79 38.27 39.56 39.15 37.23 37.13 42.70 43.09 40.94 41.09 40.21 36.92 40.07 41.46 44.81 44.69 47.43 50.72 50.17 46.79 45.51 48.28 48.16 49.31 50.14 49.58 49.93 49.37 46.78 46.29 42.38 44.40 45.42 49.06 52.37 57.04 57.91 59.60 59.87 60.79 62.57
39.02 38.26 40.26 37.62 38.82 37.74 38.03 37.27 37.26 38.02 39.41 38.29 37.52 40.38 39.98 38.73 40.22 38.45 41.12 40.84 40.57 45.06 42.90 45.10 43.67 48.75 46.88 49.34 49.17 47.75 50.02 50.87 49.42 49.20 48.39 47.94 47.30 50.88 53.43 59.32 60.16 59.65 60.47 60.00 60.52
45.61 46.59 41.52 37.17 35.83 34.66 35.42 37.27 37.50 39.58 40.80 41.66 40.80 39.26 37.85 40.07 44.27 44.38 44.45 43.84 43.45 41.96 41.94 42.11 41.25 44.25 43.04 48.04 47.90 44.15 47.75 49.18 50.67 51.16 49.86 46.43 49.12 51.95 52.17 55.33 58.39 60.48 59.10 59.54 59.52
MSLP
1017.94 1017.47 1016.97 1016.42 1015.84 1015.37 1014.94 1014.41 1013.84 1013.31 1012.77 1012.38 1011.90 1011.40 1011.05 1010.48 1009.40 1008.54 1007.23 1004.61 1004.18 1004.12 1004.65 1004.26 1004.88 1004.87 1004.63 1004.66 1005.73 1007.41 1008.11 1007.03 1004.38 1002.41 1002.01 1001.58 1002.13 1003.07 1003.65 1005.05 1006.50 1006.55 1007.79 1008.71 1010.03
1017.98 1017.48 1017.00 1016.46 1015.84 1015.23 1014.65 1014.22 1013.78 1013.20 1012.61 1012.07 1011.73 1011.28 1010.84 1010.38 1009.24 1006.58 1003.24 1003.06 1003.03 1003.77 1004.34 1003.93 1003.99 1004.39 1004.49 1003.89 1005.66 1006.46 1007.22 1005.48 1003.12 1002.37 1001.58 1001.44 1001.77 1002.67 1003.75 1004.96 1005.61 1006.72 1007.75 1008.69 1009.43
1017.99 1017.47 1016.93 1016.40 1015.83 1015.21 1014.53 1013.84 1013.36 1012.96 1012.49 1011.91 1011.49 1011.05 1010.67 1010.37 1008.76 1003.47 1001.46 1001.46 1002.39 1003.21 1003.23 1003.20 1003.25 1003.47 1003.83 1003.33 1005.08 1005.53 1004.99 1003.30 1002.13 1001.28 1000.80 1001.01 1001.50 1002.07 1003.04 1004.49 1005.10 1006.16 1007.19 1008.37 1009.26
1017.87 1017.36 1016.77 1016.17 1015.57 1015.01 1014.35 1013.60 1012.95 1012.50 1012.12 1011.82 1011.30 1010.84 1010.36 1010.14 1006.82 1002.00 1001.61 1001.29 1002.00 1002.89 1003.24 1003.01 1002.93 1003.05 1003.23 1003.05 1003.62 1004.18 1002.91 1001.86 1001.26 1000.40 1000.14 1000.51 1001.10 1001.99 1002.56 1003.41 1004.55 1005.89 1006.64 1007.52 1008.89
1017.86 1017.26 1016.71 1016.05 1015.28 1014.53 1013.95 1013.39 1012.68 1012.07 1011.62 1011.33 1011.12 1010.74 1009.88 1008.81 1004.39 1001.87 1002.04 1002.08 1002.31 1002.83 1002.77 1002.82 1002.76 1002.52 1002.43 1002.07 1002.33 1002.56 1001.77 1001.15 1000.20 999.95 1000.22 999.97 1000.65 1001.52 1002.20 1002.96 1004.46 1005.83 1006.72 1007.34 1008.11
1017.94 1017.29 1016.61 1015.94 1015.12 1014.21 1013.43 1012.75 1012.20 1011.64 1011.06 1010.80 1010.71 1010.63 1009.92 1006.73 1001.49 1000.97 1001.47 1002.20 1002.00 1002.04 1002.03 1002.15 1001.95 1001.66 1001.45 1001.07 1000.97 1000.91 1001.12 1000.12 998.57 998.74 999.11 999.84 1000.34 1001.30 1002.43 1003.26 1004.33 1005.50 1006.68 1007.25 1007.78
1017.81 1017.08 1016.34 1015.63 1014.83 1013.96 1012.99 1012.06 1011.37 1010.86 1010.42 1010.12 1010.17 1010.02 1008.36 1003.00 1000.55 1000.31 1000.88 1000.99 1001.08 1001.19 1001.43 1001.31 1001.31 1001.47 1001.05 1000.81 1000.04 999.99 1000.04 999.90 998.90 998.63 998.90 999.73 1001.56 1001.85 1002.32 1003.14 1004.16 1005.26 1006.40 1007.24 1007.62
1017.77 1016.91 1015.96 1015.02 1014.19 1013.29 1012.46 1011.56 1010.45 1009.58 1009.38 1009.37 1009.51 1009.09 1005.92 1000.90 1000.25 1000.37 1000.57 1000.57 1000.28 1000.30 1000.69 1000.57 1000.67 1000.89 1001.13 1000.72 1000.25 1000.08 999.71 999.18 998.16 998.01 998.56 999.69 1001.93 1002.10 1002.33 1003.00 1004.13 1005.05 1006.04 1006.91 1007.33
1017.66 1016.80 1015.79 1014.58 1013.62 1012.73 1011.56 1010.24 1009.00 1008.08 1008.23 1008.77 1009.02 1008.10 1003.46 999.29 999.61 998.87 999.18 999.67 999.58 999.85 1000.05 999.96 1000.11 1000.69 1000.95 1001.20 1001.13 1000.17 1000.02 999.12 997.92 997.61 998.48 999.36 1001.40 1001.35 1001.89 1002.70 1003.59 1004.42 1005.50 1006.34 1006.92
1017.51 1016.66 1015.78 1014.67 1013.37 1012.38 1011.13 1009.13 1007.45 1007.67 1008.04 1008.12 1007.33 1006.97 1001.94 998.84 997.64 997.89 998.15 998.77 999.22 999.64 999.88 999.87 1000.23 1000.55 1000.74 1001.02 1000.90 1000.45 999.84 998.88 998.14 997.63 998.46 999.90 1001.08 1001.49 1001.81 1002.42 1003.14 1003.70 1004.57 1005.62 1006.22
1017.49 1016.64 1015.58 1014.37 1013.17 1012.24 1011.39 1009.41 1007.64 1007.28 1006.52 1005.22 1004.03 1002.20 999.29 997.91 997.08 997.07 997.34 998.23 998.88 999.42 999.80 999.89 1000.34 999.77 1000.14 1000.23 1000.25 999.94 999.30 998.57 997.49 997.32 998.41 999.82 1000.79 1001.14 1001.07 1002.11 1002.89 1002.89 1003.58 1004.46 1005.24
1017.32 1016.49 1015.48 1014.02 1012.53 1011.31 1011.23 1009.95 1007.12 1005.85 1003.81 1002.84 1001.33 1000.52 999.33 998.25 997.84 996.42 996.63 997.81 998.39 999.00 999.46 999.84 999.04 999.57 999.77 999.62 999.71 999.25 998.75 997.99 997.79 996.45 997.90 999.39 1000.71 1000.80 1000.57 1000.37 1001.35 1002.10 1002.65 1003.28 1004.24
1016.99 1016.25 1015.33 1013.95 1011.80 1010.48 1010.21 1008.38 1006.27 1005.23 1004.01 999.93 998.44 997.82 997.36 997.69 997.07 995.93 996.06 996.80 997.54 998.32 998.43 998.63 998.33 998.97 998.90 998.69 998.64 998.36 997.88 997.47 997.93 997.63 998.30 999.86 1001.08 1001.24 1000.06 999.95 1000.60 1001.23 1001.48 1002.17 1002.79
1016.85 1016.09 1015.47 1014.26 1011.02 1011.00 1009.15 1007.20 1006.14 1005.44 1003.75 998.34 995.83 994.13 995.22 996.20 995.68 995.34 995.01 995.89 996.68 997.12 997.86 997.85 997.83 997.68 997.72 997.50 997.58 997.48 996.89 997.21 997.36 998.17 998.64 999.80 1000.89 1001.31 999.93 999.75 999.84 1000.21 1000.62 1001.17 1001.84
1016.55 1015.94 1015.39 1015.48 1014.29 1011.68 1008.86 1007.84 1006.76 1005.73 1003.03 994.98 992.95 991.76 992.65 994.23 993.99 993.95 994.12 994.92 995.36 996.30 996.90 995.94 996.38 996.36 996.35 996.37 996.64 995.89 996.90 997.01 997.19 997.57 998.46 999.32 1000.47 999.46 999.47 999.60 999.48 999.39 999.66 1000.00 1000.55
1016.12 1015.59 1015.20 1014.00 1013.37 1010.63 1009.49 1008.08 1006.96 1006.03 1000.77 994.80 991.85 992.12 993.18 994.02 993.42 992.56 993.72 994.47 995.04 995.72 995.95 995.48 995.33 995.25 995.16 995.40 995.60 995.97 996.68 996.87 997.11 997.46 998.51 998.48 999.16 998.62 998.06 998.16 998.30 998.18 998.46 998.87 999.52
1015.84 1015.09 1014.75 1014.33 1012.00 1009.41 1009.90 1008.38 1007.23 1003.79 997.96 994.57 992.55 992.12 992.52 993.04 993.44 993.33 993.94 994.35 994.44 994.96 994.93 995.00 994.52 994.30 994.29 994.60 994.88 995.35 996.29 997.04 997.50 997.29 996.92 997.25 997.58 996.26 995.93 996.14 995.98 996.44 996.91 997.56 998.17
1015.81 1014.46 1012.42 1011.44 1010.35 1010.76 1010.44 1009.03 1005.78 1000.69 998.54 994.34 994.59 993.57 992.75 992.54 992.61 992.93 993.30 993.62 993.94 994.43 994.77 994.83 994.12 993.30 992.84 993.19 993.76 994.17 995.34 995.83 996.37 996.94 996.93 996.21 995.47 994.53 994.00 993.80 994.17 995.00 995.77 996.79 997.13
1015.27 1013.34 1011.59 1008.49 1008.70 1009.82 1010.20 1007.96 1003.39 1001.23 999.33 998.79 996.21 994.61 993.17 992.45 992.21 992.51 992.34 992.38 992.67 993.46 993.85 993.75 993.21 992.31 992.25 992.24 992.88 993.70 993.52 995.09 996.42 996.92 996.68 995.61 994.47 993.39 993.06 993.38 994.06 994.42 994.92 995.99 996.52
1015.54 1013.08 1010.18 1007.49 1007.51 1008.63 1008.55 1005.67 1003.55 1001.73 1000.96 1001.29 1000.54 997.90 995.97 995.20 995.08 992.18 991.95 991.28 991.52 992.06 993.19 992.92 992.80 992.25 991.75 991.85 991.95 992.20 993.51 994.68 995.23 996.21 995.97 995.25 994.13 992.95 992.46 992.86 993.36 993.78 993.83 994.36 995.01
1015.07 1012.23 1007.61 1006.63 1006.23 1006.71 1006.08 1005.51 1004.77 1003.67 1002.62 1002.07 1001.21 999.70 998.63 997.11 996.66 994.84 992.95 990.55 990.34 990.93 991.71 992.57 992.81 992.00 991.26 990.59 991.28 991.84 992.41 993.78 994.63 995.39 995.50 995.25 993.01 992.08 991.75 991.82 992.52 992.76 992.67 992.90 993.05
1014.57 1012.21 1007.22 1007.43 1007.15 1005.82 1005.68 1005.76 1005.41 1003.98 1003.33 1001.86 1001.47 1000.76 999.81 998.71 996.80 995.78 993.87 992.60 990.50 989.72 990.27 990.90 991.79 991.74 990.66 990.21 990.00 990.42 991.30 992.82 994.13 994.90 995.06 994.87 992.57 991.10 991.16 991.31 990.78 991.16 992.13 992.13 992.36
1014.80 1012.30 1008.12 1007.97 1007.56 1006.71 1005.89 1005.07 1004.49 1003.90 1003.25 1002.82 1001.78 1001.32 1000.38 999.14 998.17 996.21 994.52 992.61 991.68 991.24 989.08 989.79 990.12 991.35 990.64 990.04 989.48 989.20 990.38 991.34 992.65 994.20 993.98 994.38 991.86 991.11 990.89 991.35 991.22 992.61 992.65 992.15 991.81
1015.65 1012.58 1009.16 1008.08 1007.73 1007.55 1007.24 1006.54 1006.01 1005.13 1004.35 1003.77 1003.28 1002.61 1001.69 1000.18 999.37 996.88 995.83 993.73 992.40 991.30 990.51 990.28 988.78 988.94 988.69 988.59 989.24 989.04 989.23 990.09 991.41 992.34 992.60 991.85 992.58 991.42 990.58 991.07 990.51 990.49 991.26 991.79 992.11
1015.87 1013.61 1011.91 1010.44 1009.14 1009.56 1008.95 1008.18 1006.80 1005.90 1005.01 1004.79 1004.07 1004.56 1004.09 1002.62 1001.41 999.49 998.23 996.88 994.70 993.48 991.89 991.13 989.75 987.87 987.98 988.51 988.39 988.26 988.21 988.65 989.42 990.06 991.19 991.60 991.82 991.11 990.88 990.57 990.58 990.46 991.01 991.12 991.14
1016.12 1014.60 1013.57 1012.56 1011.21 1009.96 1008.67 1007.43 1006.50 1006.65 1006.45 1005.66 1005.78 1005.17 1005.21 1004.67 1003.76 1002.01 1001.29 1000.44 998.51 995.50 995.31 993.42 991.06 988.55 987.57 987.68 987.97 987.63 987.38 987.54 987.96 988.84 989.53 990.27 989.96 990.28 990.21 990.34 990.00 990.25 989.84 990.89 991.36
1015.30 1014.87 1014.57 1013.23 1011.79 1010.57 1009.25 1008.11 1007.64 1007.07 1006.98 1006.71 1006.22 1005.51 1005.68 1004.85 1003.48 1002.41 1001.94 1000.93 999.90 998.69 996.78 995.12 992.87 990.61 987.97 987.51 987.60 987.56 985.57 986.83 987.02 987.26 988.12 988.51 989.29 989.98 989.98 990.19 990.19 989.76 990.02 989.68 990.55
Wind_Speed
21 21 21 21 22 21 21 21 21 22 22 21 20 19 18 18 20 5 9 13 10 15 2 5 10 10 12 11 6 7 4 7 9 11 6 9 18 20 25 24 23 12 18 25 24
22 22 22 22 23 23 23 22 21 22 22 22 21 20 18 18 7 12 19 20 20 15 8 11 10 11 6 9 4 6 2 7 10 10 3 15 22 18 17 15 15 22 18 25 25
23 23 23 23 23 24 24 23 23 22 22 22 21 20 17 15 6 9 6 26 17 16 14 11 11 12 11 10 5 7 6 8 17 14 10 11 15 15 14 14 21 24 22 28 21
24 25 25 26 25 25 24 25 24 24 23 21 20 18 16 5 7 1 2 11 14 13 10 11 9 10 9 12 10 8 13 7 7 8 6 13 12 15 15 15 24 25 22 17 25
25 24 24 25 27 27 26 24 24 24 24 21 17 15 8 5 16 7 1 2 9 6 13 13 13 12 13 13 8 9 12 11 18 18 14 16 12 17 13 27 25 22 19 15 16
23 23 24 25 26 27 27 27 24 24 24 20 15 8 4 11 10 13 13 8 10 9 10 14 10 14 9 16 14 14 9 19 12 13 14 13 11 12 20 26 27 24 18 12 12
24 25 25 25 26 27 28 29 28 26 23 19 11 6 7 24 6 5 12 11 11 10 10 12 14 11 6 13 17 16 12 20 15 9 11 17 10 16 20 25 25 24 19 15 13
24 26 27 28 29 29 29 29 31 30 22 15 7 6 12 10 17 20 13 15 16 11 12 12 11 12 7 9 15 13 8 8 12 10 6 14 7 16 15 23 23 23 20 18 16
23 25 27 30 31 30 32 34 33 23 10 6 5 5 13 10 9 14 11 13 11 11 10 15 9 10 9 8 8 7 10 10 12 12 9 10 10 16 15 20 21 21 20 18 15
23 24 26 28 31 31 33 34 20 2 4 9 8 3 9 13 8 13 13 16 9 9 11 9 5 8 8 8 12 9 8 11 11 8 15 12 6 12 13 17 20 21 20 18 17
23 24 27 30 31 30 21 10 5 0 6 9 9 9 23 9 6 12 15 10 10 7 11 11 8 16 14 15 10 15 14 16 13 11 10 9 10 13 15 10 11 20 20 20 20
23 25 27 31 33 33 10 4 13 8 13 16 26 27 27 19 12 15 17 13 10 14 11 11 19 14 13 12 18 20 19 20 14 19 11 18 12 14 15 17 15 19 21 22 20
24 25 27 30 37 15 11 13 13 12 8 16 25 19 23 17 24 14 15 17 16 17 18 18 9 17 18 18 19 22 21 16 8 6 5 13 1 8 11 11 14 15 22 22 23
24 25 25 28 11 10 9 19 19 10 6 11 10 12 14 13 13 26 20 16 12 18 18 14 18 19 22 22 19 19 23 20 18 13 10 14 6 14 16 17 16 19 21 22 22
24 24 24 16 10 7 10 18 20 7 7 6 8 6 12 22 9 24 19 18 18 18 11 19 18 21 20 24 19 22 14 19 20 15 15 14 6 8 19 18 20 16 22 22 22
25 25 24 10 6 16 16 18 7 1 12 9 8 8 14 20 15 5 24 16 8 15 18 18 11 19 20 16 21 14 15 18 17 11 6 19 12 9 9 21 14 8 10 24 22
27 26 20 11 7 7 12 6 2 9 9 9 6 13 18 12 22 22 20 24 19 18 19 17 23 17 21 16 17 20 11 12 10 11 10 14 17 12 12 13 22 25 20 17 25
23 30 13 11 9 13 4 3 12 9 15 20 16 13 16 14 21 25 25 24 25 19 9 14 17 23 13 23 12 19 17 13 13 12 10 9 11 12 18 16 28 21 15 13 14
26 8 10 9 13 8 6 11 7 9 8 16 22 10 15 18 15 19 23 22 24 24 18 16 17 8 22 18 20 9 21 12 5 9 6 8 10 10 20 15 20 20 18 10 8
9 8 11 12 11 8 10 17 11 15 25 18 12 11 10 17 17 18 21 20 21 27 24 13 7 21 16 23 16 19 6 14 13 15 20 15 12 10 10 19 18 19 16 14 8
5 6 13 13 9 10 16 12 17 21 23 13 19 26 24 26 19 24 16 21 24 25 26 24 18 17 14 20 21 8 18 10 8 13 11 11 16 6 11 20 21 20 25 24 22
6 6 12 14 9 7 12 17 22 24 23 26 20 24 26 26 27 25 24 21 18 26 27 23 17 18 25 19 24 25 16 10 9 5 5 8 15 8 13 16 25 24 18 15 22
6 10 12 8 6 10 14 21 22 21 17 13 19 21 20 25 25 19 25 27 24 21 25 18 21 12 19 17 20 27 19 17 15 6 15 5 16 16 11 9 16 8 8 10 9
5 6 7 6 5 14 12 12 14 20 18 19 14 19 18 20 14 16 22 20 24 22 17 9 20 30 20 20 4 11 22 19 19 14 12 23 10 13 4 9 11 18 14 10 10
3 6 11 9 12 17 13 9 17 14 14 17 8 15 22 17 24 14 15 24 20 23 18 2 18 22 27 17 14 24 14 26 23 21 14 13 15 14 13 10 11 14 11 17 7
3 4 6 11 13 18 14 13 12 13 10 13 11 12 18 11 16 22 20 15 10 16 21 11 10 19 18 29 27 26 17 21 28 23 19 13 16 5 8 7 10 9 21 7 5
3 4 3 5 10 12 11 18 22 13 3 12 16 15 14 22 19 17 16 19 20 24 24 11 4 10 13 9 14 23 30 21 11 17 18 19 14 7 9 4 5 4 7 14 8
Wind_Direction
355 353 350 347 344 341 339 335 332 330 326 324 324 322 323 321 308 203 234 227 199 179 212 199 202 216 242 254 97 164 58 296 286 89 142 134 106 118 118 129 149 158 149 160 160
354 350 347 343 340 337 334 331 328 326 324 322 322 323 324 328 288 253 236 219 249 161 184 225 209 202 231 251 105 100 178 256 283 312 219 134 126 139 131 128 127 139 148 153 159
351 347 343 340 336 333 330 327 324 322 320 319 320 320 320 320 280 246 334 213 217 171 209 223 245 244 222 238 192 160 240 245 267 256 228 152 128 130 136 142 152 147 155 153 159
349 345 340 337 334 331 328 323 320 318 318 316 316 318 313 274 281 10 203 123 157 181 232 244 256 259 249 246 160 147 229 222 233 286 225 141 143 145 161 146 145 144 150 157 149
344 340 337 335 331 328 323 319 316 315 314 314 314 318 318 223 244 235 197 125 140 172 216 223 233 241 238 248 169 202 208 226 246 257 252 139 144 162 164 133 137 142 154 163 161
338 335 333 331 328 325 321 317 313 310 310 308 309 309 241 249 250 233 184 165 214 186 215 212 227 232 246 253 253 209 208 226 264 222 170 137 138 114 138 139 140 145 159 173 172
334 332 330 329 325 322 319 316 311 307 301 298 293 234 253 236 263 336 177 188 210 209 219 222 235 252 267 267 272 281 263 225 256 218 160 116 89 150 147 142 146 151 160 176 185
333 330 328 326 324 322 318 313 306 299 288 277 245 215 249 256 237 251 232 231 215 210 208 232 221 243 253 288 294 280 286 282 220 177 195 114 182 134 147 146 151 155 165 179 189
331 329 326 324 322 321 318 313 304 293 259 208 178 244 264 263 213 240 211 230 198 224 217 227 221 217 250 248 293 284 257 269 266 177 157 110 179 192 165 153 157 161 169 182 190
328 327 324 320 318 321 320 311 288 293 189 180 265 295 253 251 215 196 203 218 207 213 239 237 235 230 218 204 224 243 241 255 247 197 157 119 181 164 170 162 165 165 172 180 189
327 327 325 320 317 318 330 338 320 140 228 224 190 235 290 253 251 186 191 196 210 215 217 213 210 224 218 216 225 245 248 252 252 198 150 142 161 190 182 170 192 172 175 178 188
329 329 328 321 318 315 301 263 296 297 290 251 250 247 250 262 282 248 170 182 192 215 214 220 222 221 231 224 223 244 252 261 293 150 133 165 182 223 213 202 185 184 178 180 180
330 330 329 324 315 304 316 272 277 334 280 275 234 233 225 230 246 225 175 188 192 211 219 217 224 215 228 230 218 230 241 255 230 18 332 172 1 231 230 180 194 200 180 182 180
326 327 331 336 320 341 292 339 340 315 286 269 207 239 211 207 243 236 195 194 216 211 225 227 224 220 218 232 224 224 234 247 256 195 202 170 207 229 211 211 207 200 184 184 185
323 325 326 327 289 294 318 325 312 312 299 241 193 144 150 176 142 225 219 196 205 212 190 224 214 226 223 222 226 234 230 240 250 256 143 248 244 211 200 213 213 192 187 190 185
321 322 325 318 293 256 292 298 288 239 246 270 148 161 141 203 233 304 202 226 217 213 228 236 225 227 235 228 224 238 233 248 253 250 192 210 191 242 183 190 186 188 204 190 189
318 318 310 278 241 308 337 302 198 228 270 228 195 169 187 175 210 229 197 212 213 202 219 231 237 236 222 230 216 220 218 235 246 241 238 182 193 209 212 187 175 187 202 204 189
311 311 281 243 229 249 276 281 231 232 220 295 310 285 208 208 202 211 223 209 216 223 196 220 232 228 221 218 208 213 214 221 216 226 245 227 203 220 204 209 194 182 196 195 191
311 302 281 247 232 211 238 226 209 198 281 357 334 312 262 208 213 204 220 204 205 212 216 204 236 222 226 235 212 229 216 227 253 254 256 231 255 259 213 197 188 183 165 193 236
315 293 257 261 238 184 227 238 262 304 326 335 311 286 321 321 321 203 208 221 207 203 219 245 247 223 240 224 235 211 192 209 225 227 244 251 244 238 188 179 173 182 185 193 212
272 292 271 278 255 207 229 242 260 275 287 291 290 291 295 297 294 288 284 228 216 199 206 221 242 258 230 214 214 216 222 227 198 223 232 240 250 244 187 179 175 186 197 196 190
299 286 286 346 304 228 245 254 263 264 266 277 270 279 280 289 289 283 277 265 263 203 205 203 215 240 248 265 205 215 207 195 216 263 252 233 253 272 222 199 185 188 198 221 190
293 288 271 254 255 267 272 263 262 269 287 314 314 301 300 274 282 273 284 288 283 293 215 197 213 222 251 260 253 211 210 201 218 179 235 208 247 256 244 172 152 164 235 253 240
293 307 296 337 271 281 305 320 335 329 314 309 325 328 340 309 289 295 304 295 300 273 283 275 204 211 221 236 226 216 207 198 199 219 233 240 265 280 242 181 171 164 209 223 232
265 267 315 309 326 326 288 222 289 289 328 341 337 341 327 304 315 310 339 335 322 313 338 282 252 207 213 216 227 241 220 202 209 209 203 233 233 240 236 200 188 176 214 237 222
278 320 336 303 307 311 301 292 309 329 337 313 305 322 340 321 285 304 322 325 302 329 338 339 296 218 206 209 222 244 245 224 210 216 227 232 248 203 253 233 185 226 182 176 242
246 273 277 296 298 292 308 313 325 7 324 318 315 318 307 290 291 273 274 274 269 281 291 278 311 304 206 180 206 232 233 246 239 210 200 221 235 230 266 225 195 214 259 193 239